STARLINK-33619, 63324

Orbit data source: Space-Track

STARLINK-33619, 63324 is a payload satellite owned by SpaceX/Seattle (US) in LEO that was launched on Tue, 18 Mar 2025 UTC via an FALCON 9 launch vehicle from the Air Force Eastern Test Range (AFETR). Payload-class satellites include a variety of spacecraft equipped with specific instruments for various scientific and technological missions. These include communications satellites like Starlink; space stations such as the ISS; scientific satellites like the Hubble; Earth observation satellites from companies like Planet Labs, Umbra, and HawkEye 360; GPS; miniature CubeSats for education and research; and military/defense satellites.

Loading next visibility...
Identifier
63324, 2025-057T
Orbit
LEO
Last TLE update
11 hours ago
Origin
Manufacturer
SpaceX/Seattle
Mission
Operational Commercial Communications
Bus & Motor
STARLINK V2MO, Unknown motor
Mass
575 kg wet, ~530 kg dry
Launch date (UTC)
2025-03-18 (4 months ago)
Launch vehicle
FALCON 9
Launch site
Air Force Eastern Test Range (AFETR)
Object type
Payload
Rocket body
Debris
Shape & HBR
Box + 1 Pan, 29 m
Radar Cross Section
41.120 m², Large (>1 m²)

Expand to show TLE details & history

TLE from 11 hours ago
0 STARLINK-33619
1 63324U 25057T   25186.47060107  .00031440  00000-0  11468-2 0  9998
2 63324  42.9955 346.5551 0000909 258.3677 101.7073 15.27590795 17972
Epoch: 2025-07-05T11:17Z
TLE epoch observation values (Epoch: 2025-07-05T11:17:39.932Z)
Latitude
0.00001°
Longitude
-106.56945°
Altitude
482.918 km
Speed
7.626 km/s
True Right ascension
23h 06m 13s
True Declination
0° 00' 00"
Sunlit
Object was in full shadow at epoch
Visualization orbit readout
Latitude
42.4077°
Longitude
-6.21843°
Altitude
486.505 km
Speed
7.628 km/s
Apparent Right ascension
02h 18m 49s
Apparent Declination
5° 10' 26"
Sunlit
Object is in daylight
Visualization observer readout
Local Sidereal Time
10:39:00
Azimuth
298.142° NW
Elevation
-22.381°
Doppler factor
1
Orbital elements
Apogee altitude
485.587 km
Perigee altitude
484.339 km
Semi-major axis
6,863.1 km
Eccentricity
0.00009
Inclination
42.9955°
RAAN
346.5551°
Arg. of periapsis
258.3677°
True anomaly
Unknown
Mean anomaly
101.7073°
Eccentric anomaly
Unknown
Mean motion
3.81736 °/min
Orbital period
94.31 mins
BSTAR
0.0011468
Loading maneuver chart data...
Loading SW <> Apogee altitude chart data...
Loading historical data...
Loading historical data...
Loading historical data...
Loading historical data...
Loading historical data...
Loading historical data...
Loading historical data...

STARLINK-33619 Visibility forecast

Observer location: undefined°, undefined°

Span
Click to sort rows by Start time (UTC) header in descending order
Start Az.
Max El. time (UTC)
Max El. Az.
Max El.
End time (UTC)
End Az.
5 mins2025-07-06 14:12:46.726Z221.541° SW2025-07-06 14:14:46.726Z143.907° SSE38.873°2025-07-06 14:17:46.726Z78.831° E
5 mins2025-07-06 15:51:46.726Z282.134° WNW2025-07-06 15:53:46.726Z5.987° NNE39.879°2025-07-06 15:56:46.726Z70.024° E
5 mins2025-07-06 17:30:46.726Z296.561° NW2025-07-06 17:32:46.726Z6.277° NNE40.857°2025-07-06 17:35:46.726Z88.292° E
5 mins2025-07-06 19:09:46.726Z270.695° WNW2025-07-06 19:11:46.726Z204.831° SW36.804°2025-07-06 19:14:46.726Z134.311° SE
|